Location: Ida Center
(41.8662°N, 83.5713°W)
Time: 01:25:03
(UTC+00:00)

NOAA 12 - Pass Details

Date: 17 November 2019
Orbit: 795 x 816 km, 98.5° (Epoch: 10 December)

Event Time Altitude Azimuth Distance (km) Brightness Sun altitude
Rises 23:32:42 0° 170° (S) 3,325 7.3 -15.0°
Reaches altitude 10° 23:35:03 10° 173° (S) 2,398 6.6 -15.5°
Maximum altitude 23:40:21 72° 258° (WSW) 858 4.4 -16.4°
Drops below altitude 10° 23:45:41 10° 343° (NNW) 2,413 6.7 -17.4°
Sets 23:48:03 0° 345° (NNW) 3,348 7.4 -17.8°
